| time (UTC) | temp C | wind direction | speed KPH | gust KPH | rain 1hr cm | rain 24hr cm | rain mn cm | humidity % | barometer mb |
| 20260508220041 | 19 | 267 | 1.6 | 6.4 | 0.00 | 0.00 | 0.00 | 44 | 1009.0 |
| 20260508214541 | 20 | 330 | 3.2 | 12.9 | 0.00 | 0.00 | 0.00 | 43 | 1009.1 |
| 20260508213040 | 20 | 244 | 3.2 | 14.5 | 0.00 | 0.00 | 0.00 | 42 | 1009.2 |
| 20260508211540 | 20 | 203 | 3.2 | 17.7 | 0.00 | 0.00 | 0.00 | 43 | 1009.2 |
| 20260508210035 | 19 | 289 | 3.2 | 9.7 | 0.00 | 0.00 | 0.00 | 42 | 1009.7 |
| 20260508204534 | 20 | 300 | 3.2 | 14.5 | 0.00 | 0.00 | 0.00 | 42 | 1010.0 |
| 20260508203039 | 20 | 309 | 1.6 | 14.5 | 0.00 | 0.00 | 0.00 | 45 | 1010.1 |
| 20260508201531 | 20 | 182 | 4.8 | 12.9 | 0.00 | 0.00 | 0.00 | 43 | 1010.2 |
| 20260508200031 | 20 | 315 | 3.2 | 19.3 | 0.00 | 0.00 | 0.00 | 40 | 1010.2 |
| 20260508194528 | 20 | 263 | 4.8 | 16.1 | 0.00 | 0.00 | 0.00 | 40 | 1010.5 |
| 20260508193028 | 21 | 9 | 3.2 | 16.1 | 0.00 | 0.00 | 0.00 | 40 | 1010.5 |
| 20260508191527 | 21 | 238 | 3.2 | 17.7 | 0.00 | 0.00 | 0.00 | 40 | 1010.6 |
| 20260508190023 | 20 | 313 | 6.4 | 17.7 | 0.00 | 0.00 | 0.00 | 37 | 1011.0 |
| 20260508184521 | 21 | 360 | 4.8 | 16.1 | 0.00 | 0.00 | 0.00 | 37 | 1011.3 |
| 20260508183019 | 20 | 188 | 4.8 | 16.1 | 0.00 | 0.00 | 0.00 | 40 | 1011.5 |
| 20260508181519 | 20 | 346 | 4.8 | 17.7 | 0.00 | 0.00 | 0.00 | 43 | 1011.7 |
| 20260508180018 | 20 | 241 | 4.8 | 24.1 | 0.00 | 0.00 | 0.00 | 42 | 1011.9 |
| 20260508174511 | 19 | 299 | 3.2 | 14.5 | 0.00 | 0.00 | 0.00 | 42 | 1012.1 |
| 20260508173008 | 19 | 288 | 4.8 | 17.7 | 0.00 | 0.00 | 0.00 | 42 | 1012.6 |
| 20260508171521 | 19 | 188 | 4.8 | 16.1 | 0.00 | 0.00 | 0.00 | 42 | 1012.7 |
| 20260508170005 | 20 | 265 | 8.0 | 24.1 | 0.00 | 0.00 | 0.00 | 42 | 1013.1 |
| 20260508164503 | 20 | 257 | 4.8 | 17.7 | 0.00 | 0.00 | 0.00 | 44 | 1013.4 |
| 20260508163107 | 19 | 132 | 4.8 | 17.7 | 0.00 | 0.00 | 0.00 | 47 | 1013.5 |
| 20260508161559 | 19 | 308 | 3.2 | 16.1 | 0.00 | 0.00 | 0.00 | 46 | 1013.7 |
| 20260508160055 | 18 | 271 | 4.8 | 20.9 | 0.00 | 0.00 | 0.00 | 49 | 1013.8 |
| 20260508154553 | 18 | 293 | 6.4 | 17.7 | 0.00 | 0.00 | 0.00 | 46 | 1014.0 |
| 20260508153049 | 18 | 306 | 3.2 | 12.9 | 0.00 | 0.00 | 0.00 | 48 | 1014.3 |
| 20260508151550 | 17 | 211 | 1.6 | 14.5 | 0.00 | 0.00 | 0.00 | 50 | 1014.4 |
| 20260508150044 | 17 | 315 | 3.2 | 12.9 | 0.00 | 0.00 | 0.00 | 50 | 1014.5 |
| 20260508144548 | 17 | 80 | 4.8 | 12.9 | 0.00 | 0.00 | 0.00 | 51 | 1014.6 |
| 20260508143049 | 16 | 315 | 3.2 | 14.5 | 0.00 | 0.00 | 0.00 | 50 | 1014.8 |
| 20260508141535 | 15 | 289 | 1.6 | 19.3 | 0.00 | 0.00 | 0.00 | 54 | 1014.9 |
| 20260508140037 | 15 | 252 | 3.2 | 12.9 | 0.00 | 0.00 | 0.00 | 56 | 1015.0 |
| 20260508134527 | 14 | 114 | 1.6 | 11.3 | 0.00 | 0.00 | 0.00 | 59 | 1015.0 |
| 20260508133023 | 13 | 169 | 1.6 | 8.0 | 0.00 | 0.00 | 0.00 | 65 | 1015.1 |
| 20260508131518 | 12 | 202 | 0.0 | 4.8 | 0.00 | 0.00 | 0.00 | 72 | 1015.1 |
| 20260508130014 | 11 | 123 | 1.6 | 4.8 | 0.00 | 0.00 | 0.00 | 74 | 1015.0 |
| 20260508124519 | 10 | 153 | 1.6 | 4.8 | 0.00 | 0.00 | 0.00 | 78 | 1015.1 |
| 20260508123005 | 8 | 164 | 0.0 | 4.8 | 0.00 | 0.00 | 0.00 | 83 | 1015.0 |
| 20260508121502 | 7 | 174 | 0.0 | 3.2 | 0.00 | 0.00 | 0.00 | 85 | 1015.0 |
| 20260508120100 | 7 | 194 | 0.0 | 4.8 | 0.00 | 0.00 | 0.00 | 87 | 1015.0 |
| 20260508114557 | 6 | 155 | 0.0 | 6.4 | 0.00 | 0.00 | 0.00 | 87 | 1014.9 |
| 20260508113105 | 6 | 285 | 0.0 | 3.2 | 0.00 | 0.00 | 0.00 | 88 | 1014.7 |
| 20260508111602 | 6 | 84 | 0.0 | 1.6 | 0.00 | 0.00 | 0.00 | 88 | 1014.7 |
| 20260508110056 | 6 | 84 | 0.0 | 4.8 | 0.00 | 0.00 | 0.00 | 88 | 1014.5 |
| 20260508104600 | 5 | 313 | 0.0 | 0.0 | 0.00 | 0.00 | 0.00 | 88 | 1014.6 |
| 20260508103055 | 5 | 313 | 0.0 | 1.6 | 0.00 | 0.00 | 0.00 | 88 | 1014.6 |
| 20260508101552 | 5 | 313 | 0.0 | 0.0 | 0.00 | 0.00 | 0.00 | 88 | 1014.5 |
| 20260508100052 | 5 | 313 | 0.0 | 0.0 | 0.00 | 0.00 | 0.00 | 88 | 1014.4 |
| 20260508094551 | 5 | 313 | 0.0 | 0.0 | 0.00 | 0.00 | 0.00 | 88 | 1014.5 |
| 20260508093055 | 5 | 313 | 0.0 | 0.0 | 0.00 | 0.00 | 0.00 | 88 | 1014.5 |
| 20260508091557 | 4 | 313 | 0.0 | 0.0 | 0.00 | 0.00 | 0.00 | 88 | 1014.6 |
| 20260508090059 | 4 | 313 | 0.0 | 0.0 | 0.00 | 0.00 | 0.00 | 88 | 1014.5 |
| 20260508084549 | 4 | 313 | 0.0 | 0.0 | 0.00 | 0.03 | 0.00 | 87 | 1014.4 |
| 20260508083047 | 4 | 313 | 0.0 | 0.0 | 0.00 | 0.03 | 0.00 | 87 | 1014.4 |
| 20260508081553 | 5 | 313 | 0.0 | 0.0 | 0.00 | 0.03 | 0.00 | 87 | 1014.3 |
| 20260508080049 | 5 | 313 | 0.0 | 0.0 | 0.00 | 0.03 | 0.00 | 87 | 1014.4 |
| 20260508074542 | 5 | 313 | 0.0 | 0.0 | 0.00 | 0.03 | 0.00 | 86 | 1014.4 |
| 20260508073047 | 5 | 313 | 0.0 | 0.0 | 0.00 | 0.03 | 0.00 | 86 | 1014.2 |
| 20260508071553 | 5 | 313 | 0.0 | 1.6 | 0.00 | 0.03 | 0.00 | 85 | 1014.4 |
| 20260508070051 | 5 | 313 | 0.0 | 1.6 | 0.00 | 0.03 | 0.00 | 85 | 1014.4 |
| 20260508064536 | 6 | 313 | 0.0 | 0.0 | 0.00 | 0.03 | 0.00 | 84 | 1014.7 |
| 20260508063032 | 6 | 313 | 0.0 | 1.6 | 0.00 | 0.03 | 0.00 | 83 | 1014.9 |
| 20260508061534 | 6 | 313 | 0.0 | 0.0 | 0.00 | 0.03 | 0.00 | 83 | 1014.9 |
| 20260508060036 | 6 | 313 | 0.0 | 0.0 | 0.00 | 0.03 | 0.00 | 83 | 1014.9 |
| 20260508054539 | 6 | 313 | 0.0 | 0.0 | 0.00 | 0.03 | 0.00 | 83 | 1015.0 |
| 20260508053029 | 6 | 313 | 0.0 | 0.0 | 0.00 | 0.03 | 0.00 | 82 | 1015.0 |
| 20260508051526 | 6 | 313 | 0.0 | 0.0 | 0.00 | 0.03 | 0.00 | 82 | 1014.9 |
| 20260508050024 | 6 | 313 | 0.0 | 1.6 | 0.00 | 0.03 | 0.00 | 81 | 1014.9 |
| 20260508044522 | 6 | 313 | 0.0 | 1.6 | 0.00 | 0.03 | 0.00 | 81 | 1014.9 |
| 20260508043022 | 6 | 313 | 0.0 | 1.6 | 0.00 | 0.03 | 0.00 | 80 | 1014.8 |
| 20260508041520 | 7 | 313 | 0.0 | 3.2 | 0.00 | 0.03 | 0.00 | 81 | 1014.8 |
| 20260508040028 | 7 | 313 | 0.0 | 1.6 | 0.00 | 0.03 | 0.00 | 79 | 1014.7 |
| 20260508034519 | 7 | 313 | 0.0 | 0.0 | 0.00 | 0.03 | 0.03 | 78 | 1014.7 |
| 20260508033016 | 7 | 313 | 0.0 | 1.6 | 0.00 | 0.03 | 0.03 | 78 | 1014.7 |
| 20260508031515 | 7 | 313 | 0.0 | 0.0 | 0.00 | 0.03 | 0.03 | 77 | 1014.6 |
| 20260508030022 | 7 | 313 | 0.0 | 0.0 | 0.00 | 0.03 | 0.03 | 77 | 1014.8 |
| 20260508024521 | 7 | 313 | 0.0 | 1.6 | 0.00 | 0.03 | 0.03 | 77 | 1014.9 |
| 20260508023019 | 8 | 313 | 0.0 | 1.6 | 0.00 | 0.03 | 0.03 | 74 | 1014.6 |
| 20260508021519 | 8 | 313 | 0.0 | 1.6 | 0.00 | 0.03 | 0.03 | 72 | 1014.7 |
| 20260508020013 | 8 | 313 | 0.0 | 1.6 | 0.00 | 0.03 | 0.03 | 70 | 1014.7 |
| 20260508014520 | 9 | 313 | 0.0 | 0.0 | 0.00 | 0.03 | 0.03 | 70 | 1014.6 |
| 20260508013012 | 9 | 313 | 0.0 | 1.6 | 0.00 | 0.03 | 0.03 | 66 | 1014.6 |
| 20260508011514 | 10 | 313 | 0.0 | 1.6 | 0.00 | 0.03 | 0.03 | 63 | 1014.4 |
| 20260508010011 | 11 | 313 | 0.0 | 1.6 | 0.00 | 0.03 | 0.03 | 59 | 1014.3 |
| 20260508004510 | 12 | 313 | 0.0 | 0.0 | 0.00 | 0.03 | 0.03 | 53 | 1014.4 |
| 20260508003011 | 13 | 313 | 0.0 | 0.0 | 0.00 | 0.03 | 0.03 | 47 | 1014.3 |
| 20260508001524 | 13 | 313 | 0.0 | 3.2 | 0.00 | 0.03 | 0.03 | 42 | 1014.1 |
| 20260508000009 | 14 | 305 | 1.6 | 11.3 | 0.00 | 0.03 | 0.03 | 41 | 1014.1 |
| 20260507234509 | 15 | 304 | 1.6 | 6.4 | 0.00 | 0.03 | 0.03 | 39 | 1014.0 |
| 20260507233020 | 15 | 270 | 1.6 | 6.4 | 0.00 | 0.03 | 0.03 | 38 | 1013.9 |
| 20260507231511 | 16 | 264 | 1.6 | 6.4 | 0.00 | 0.03 | 0.03 | 37 | 1013.8 |
| 20260507230021 | 16 | 254 | 1.6 | 14.5 | 0.00 | 0.03 | 0.03 | 37 | 1014.0 |
| 20260507224507 | 16 | 288 | 1.6 | 9.7 | 0.00 | 0.03 | 0.03 | 39 | 1013.9 |
| 20260507223005 | 16 | 294 | 1.6 | 11.3 | 0.00 | 0.03 | 0.03 | 36 | 1013.9 |
| 20260507221502 | 16 | 14 | 3.2 | 8.0 | 0.00 | 0.03 | 0.03 | 38 | 1014.0 |